sat.trackr.live / text

‹ back to catalog

STARLINK-35416

NORAD 66248 · 2025-245Q

PAYLOAD ACTIVE UNKNOWN

§ Identity

Operator
Country
US
Launch date
2025-10-29
Launch site
AFETR
Launch vehicle
Mass (kg)
RCS (m²)

Purposes: comms

External: N2YO · Heavens-Above · Gunter

§ Orbital elements

Epoch: 2026-09-20T22:48:50.782464Z

Period
94.01 min
Inclination
53.1581°
Eccentricity
0.0000759
Mean motion
15.31736003 rev/d
Perigee alt
470.1 km
Apogee alt
471.2 km
Semi-major
6,848.8 km
B*
7.3007e-4
RAAN
95.3800°
Arg perigee
80.2356°
Mean anomaly
279.8731°
Rev number
5,111

§ Raw data

STARLINK-354161 66248U 25245Q   26263.95058776  .00022383  00000+0  73007-3 0  99972 66248  53.1581  95.3800 0000759  80.2356 279.8731 15.31736003 51115

JSON: /api/v1/satellites/66248 · /tle

For live sub-satellite position, see the globe view (requires WebGL).

§ Visibility from observer

Set your observer location to see the next 7 days of passes ≥ 10°. The values pass through the URL so the page stays shareable.

No JS? Fill the form by hand. The geolocation button needs JavaScript.